Regional Weather Roundup
Issued by NWS

Home | Current Version | Previous Version | Text Only | Print | Product List | Glossary Off
Versions: 1 2 3 4 5 6 7 8 9 10 11 12 13 14 15 16 17 18 19 20 21 22 23 24 25 26 27 28 29 30 31 32 33 34 35 36 37 38 39 40 41 42 43 44 45 46 47 48 49 50

000
ASUS43 KBIS 110010
RWRND

NORTH DAKOTA REGIONAL WEATHER ROUNDUP
NATIONAL WEATHER SERVICE BISMARCK ND
700 PM CDT THU JUL 10 2014

NOTE: "FAIR" INDICATES FEW OR NO CLOUDS BELOW 12,000 FEET WITH NO
SIGNIFICANT WEATHER AND/OR OBSTRUCTIONS TO VISIBILITY.


NDZ001>003-009>011-017-110100-
NORTHWEST NORTH DAKOTA

CITY           SKY/WX    TMP DP  RH WIND       PRES   REMARKS
WILLISTON      MOSUNNY   94  50  22 W10       29.70F HX  91
6HR MIN TEMP:  82; 6HR MAX TEMP:  95;

MINOT          SUNNY     80  63  55 S12       29.74F
MINOT AFB      SUNNY     80  66  63 S12       29.73F
$$

NDZ018>021-031>035-040>046-110100-
SOUTHWEST NORTH DAKOTA

CITY           SKY/WX    TMP DP  RH WIND       PRES   REMARKS
BISMARCK       SUNNY     77  66  68 S14       29.80S
6HR MIN TEMP:  71; 6HR MAX TEMP:  79; 6HR PCP: TRACE;

DICKINSON      SUNNY     81  67  62 S13       29.78S
GARRISON         N/A     80  66  62 S10       29.77F
6HR MIN TEMP:  70; 6HR MAX TEMP:  80;

HETTINGER ARPT SUNNY     83  67  58 SE8       29.81F
$$

NDZ004>008-012>016-024-026-027-054-110100-
NORTHEAST NORTH DAKOTA

CITY           SKY/WX    TMP DP  RH WIND       PRES   REMARKS
GRAND FORKS    CLOUDY    79  64  60 SE12      29.80F
GRND FRKS AFB  CLOUDY    77  66  68 SE10      29.81F
DEVILS LAKE    MOSUNNY   79  63  57 S17       29.78F
$$

NDZ022-023-025-028>030-036>039-047>053-110100-
SOUTHEAST NORTH DAKOTA

CITY           SKY/WX    TMP DP  RH WIND       PRES   REMARKS
FARGO          HVY RAIN  70  68  93 N6        29.85R VSB 1/2
6HR MIN TEMP:  71; 6HR MAX TEMP:  85; 6HR PCP:  0.10;

JAMESTOWN      CLOUDY    73  65  75 S12       29.82F
$$




USA.gov is the U.S. government's official web portal to all federal, state and local government web resources and services.